When you browse on this site, cookies collect data to enhance your experience and personalize the content and advertising you see.
Visit our Privacy Policy to learn more. By continuing to use the site, you agree to this use of cookies and data.
  • Em Portugal
  • Lista de países
  • Para 7 dias
  • Temperatura da água
  • Mapas de satélite
  • Mapa do tempo
  • Widgets de tempo
  • user-avatar
    Iniciar Sessão

    Previsão horária em Staryy Sinec

    Hoje, 18 Fevereiro, Segunda-feira

    Tempo Temperatura Precipitação Vento Pressão Humidade
    00:00 -5°C° 0 mm 6 m/s 737 mmHg 81%
    01:00 -6°C° 0 mm 6 m/s 738 mmHg 81%
    02:00 -7°C° 0 mm 4 m/s 738 mmHg 84%
    03:00 -7°C° 0 mm 5 m/s 739 mmHg 85%
    04:00 -7°C° 0 mm 5 m/s 739 mmHg 85%
    05:00 -9°C° 0 mm 6 m/s 740 mmHg 85%
    06:00 -9°C° 0 mm 6 m/s 741 mmHg 86%
    07:00 -9°C° 0 mm 6 m/s 741 mmHg 86%
    08:00 -9°C° 0 mm 6 m/s 742 mmHg 87%
    09:00 -8°C° 0 mm 6 m/s 742 mmHg 85%
    10:00 -8°C° 0 mm 6 m/s 743 mmHg 83%
    11:00 -7°C° 0 mm 7 m/s 743 mmHg 82%
    12:00 -6°C° 0 mm 6 m/s 744 mmHg 81%
    13:00 -6°C° 0 mm 6 m/s 744 mmHg 80%
    14:00 -6°C° 0 mm 6 m/s 745 mmHg 79%
    15:00 -7°C° 0 mm 5 m/s 745 mmHg 81%
    16:00 -7°C° 0 mm 4 m/s 746 mmHg 83%
    17:00 -8°C° 0 mm 4 m/s 746 mmHg 85%
    18:00 -8°C° 0 mm 3 m/s 746 mmHg 87%
    19:00 -9°C° 0 mm 3 m/s 747 mmHg 89%
    20:00 -12°C° 0 mm 3 m/s 747 mmHg 91%
    21:00 -10°C° 0 mm 2 m/s 748 mmHg 91%
    22:00 -12°C° 0 mm 2 m/s 748 mmHg 92%
    23:00 -12°C° 0 mm 2 m/s 748 mmHg 92%

    Amanhã, 19 Fevereiro, Terça-feira

    Tempo Temperatura Precipitação Vento Pressão Humidade
    00:00 -11°C° 0 mm 1 m/s 748 mmHg 93%
    01:00 -11°C° 0 mm 1 m/s 749 mmHg 93%
    02:00 -12°C° 0 mm 0 m/s 749 mmHg 93%
    03:00 -11°C° 0 mm 1 m/s 749 mmHg 92%
    04:00 -11°C° 0 mm 1 m/s 749 mmHg 92%
    05:00 -13°C° 0 mm 2 m/s 749 mmHg 91%
    06:00 -13°C° 0 mm 2 m/s 749 mmHg 91%
    07:00 -13°C° 0 mm 3 m/s 749 mmHg 90%
    08:00 -13°C° 0 mm 3 m/s 748 mmHg 90%
    09:00 -12°C° 0 mm 3 m/s 748 mmHg 88%
    10:00 -10°C° 0 mm 4 m/s 748 mmHg 87%
    11:00 -8°C° 0 mm 5 m/s 747 mmHg 86%
    12:00 -7°C° 0 mm 5 m/s 747 mmHg 85%
    13:00 -7°C° 0 mm 5 m/s 746 mmHg 85%
    14:00 -6°C° 0 mm 5 m/s 746 mmHg 84%
    15:00 -6°C° 0 mm 5 m/s 745 mmHg 85%
    16:00 -7°C° 0 mm 5 m/s 745 mmHg 86%
    17:00 -7°C° 0 mm 5 m/s 744 mmHg 86%
    18:00 -7°C° 0 mm 5 m/s 744 mmHg 87%
    19:00 -8°C° 0 mm 5 m/s 744 mmHg 88%
    20:00 -9°C° 0 mm 6 m/s 743 mmHg 89%
    21:00 -9°C° 0 mm 6 m/s 743 mmHg 89%
    22:00 -10°C° 0 mm 6 m/s 742 mmHg 88%
    23:00 -10°C° 0 mm 6 m/s 742 mmHg 88%

    Depois de amanhã, 20 Fevereiro, Quarta-feira

    Tempo Temperatura Precipitação Vento Pressão Humidade
    00:00 -9°C° 0 mm 6 m/s 741 mmHg 89%
    01:00 -9°C° 0 mm 6 m/s 741 mmHg 89%
    02:00 -9°C° 0 mm 6 m/s 740 mmHg 90%
    03:00 -9°C° 0 mm 6 m/s 740 mmHg 90%
    04:00 -8°C° 0 mm 6 m/s 739 mmHg 91%
    05:00 -6°C° 0 mm 6 m/s 738 mmHg 91%
    06:00 -6°C° 0 mm 6 m/s 738 mmHg 91%
    07:00 -5°C° 0 mm 6 m/s 738 mmHg 91%
    08:00 -5°C° 0 mm 6 m/s 737 mmHg 91%
    09:00 -4°C° 0 mm 6 m/s 737 mmHg 91%
    10:00 -4°C° 0 mm 7 m/s 737 mmHg 91%
    11:00 -3°C° 0 mm 7 m/s 737 mmHg 91%
    12:00 -3°C° 0.2 mm 6 m/s 736 mmHg 92%
    13:00 -3°C° 0.2 mm 6 m/s 736 mmHg 92%
    14:00 -3°C° 0.2 mm 6 m/s 736 mmHg 92%
    15:00 -2°C° 0 mm 6 m/s 736 mmHg 92%
    16:00 -1°C° 0 mm 5 m/s 736 mmHg 92%
    17:00 -1°C° 0 mm 5 m/s 736 mmHg 93%
    18:00 -1°C° 0 mm 5 m/s 736 mmHg 92%
    19:00 -1°C° 0 mm 5 m/s 736 mmHg 92%
    20:00 -1°C° 0 mm 5 m/s 736 mmHg 92%
    21:00 -1°C° 0 mm 5 m/s 736 mmHg 92%
    22:00 -1°C° 0 mm 5 m/s 736 mmHg 91%
    23:00 -2°C° 0 mm 6 m/s 735 mmHg 91%

    21 Fevereiro, Quinta-feira

    Tempo Temperatura Precipitação Vento Pressão Humidade
    00:00 -2°C° 0 mm 6 m/s 735 mmHg 91%
    01:00 -3°C° 0 mm 6 m/s 735 mmHg 90%
    02:00 -3°C° 0 mm 6 m/s 734 mmHg 90%
    03:00 -3°C° 0.2 mm 6 m/s 734 mmHg 90%
    04:00 -3°C° 0.2 mm 6 m/s 734 mmHg 90%
    05:00 -3°C° 0.2 mm 7 m/s 733 mmHg 90%
    06:00 -4°C° 0.1 mm 6 m/s 734 mmHg 88%
    07:00 -5°C° 0.1 mm 6 m/s 734 mmHg 86%
    08:00 -6°C° 0.1 mm 5 m/s 734 mmHg 83%
    09:00 -6°C° 0 mm 6 m/s 734 mmHg 84%
    10:00 -5°C° 0 mm 6 m/s 735 mmHg 84%
    11:00 -5°C° 0 mm 6 m/s 735 mmHg 84%
    12:00 -5°C° 0.1 mm 6 m/s 735 mmHg 83%
    13:00 -5°C° 0.1 mm 6 m/s 735 mmHg 82%
    14:00 -4°C° 0.1 mm 7 m/s 736 mmHg 82%
    15:00 -5°C° 0.1 mm 6 m/s 736 mmHg 81%
    16:00 -6°C° 0.1 mm 6 m/s 737 mmHg 80%
    17:00 -8°C° 0.1 mm 6 m/s 737 mmHg 79%
    18:00 -9°C° 0 mm 6 m/s 738 mmHg 80%
    19:00 -10°C° 0 mm 5 m/s 738 mmHg 80%
    20:00 -11°C° 0 mm 5 m/s 739 mmHg 81%
    21:00 -12°C° 0 mm 5 m/s 740 mmHg 82%
    22:00 -12°C° 0 mm 5 m/s 740 mmHg 82%
    23:00 -13°C° 0 mm 5 m/s 741 mmHg 83%

    22 Fevereiro, Sexta-feira

    Tempo Temperatura Precipitação Vento Pressão Humidade
    00:00 -13°C° 0 mm 5 m/s 741 mmHg 84%
    01:00 -13°C° 0 mm 5 m/s 742 mmHg 85%
    02:00 -14°C° 0 mm 5 m/s 742 mmHg 85%
    03:00 -14°C° 0 mm 5 m/s 743 mmHg 85%
    04:00 -14°C° 0 mm 5 m/s 743 mmHg 85%
    05:00 -15°C° 0 mm 5 m/s 744 mmHg 84%
    06:00 -15°C° 0 mm 5 m/s 745 mmHg 84%
    07:00 -15°C° 0 mm 5 m/s 746 mmHg 84%
    08:00 -15°C° 0 mm 5 m/s 746 mmHg 84%
    09:00 -15°C° 0 mm 6 m/s 747 mmHg 82%
    10:00 -15°C° 0 mm 7 m/s 748 mmHg 79%
    11:00 -14°C° 0 mm 7 m/s 748 mmHg 77%
    12:00 -14°C° 0 mm 7 m/s 749 mmHg 76%
    13:00 -13°C° 0 mm 7 m/s 749 mmHg 75%
    14:00 -12°C° 0 mm 6 m/s 749 mmHg 74%
    15:00 -12°C° 0 mm 6 m/s 750 mmHg 76%
    16:00 -13°C° 0 mm 5 m/s 750 mmHg 79%
    17:00 -13°C° 0 mm 5 m/s 750 mmHg 81%
    18:00 -14°C° 0 mm 4 m/s 751 mmHg 83%
    19:00 -14°C° 0 mm 4 m/s 751 mmHg 85%
    20:00 -15°C° 0 mm 4 m/s 752 mmHg 87%
    21:00 -15°C° 0 mm 4 m/s 752 mmHg 87%
    22:00 -15°C° 0 mm 4 m/s 753 mmHg 88%
    23:00 -16°C° 0 mm 4 m/s 753 mmHg 89%

    23 Fevereiro, Sábado

    Tempo Temperatura Precipitação Vento Pressão Humidade
    00:00 -16°C° 0 mm 4 m/s 753 mmHg 90%
    01:00 -16°C° 0 mm 3 m/s 753 mmHg 91%
    02:00 -17°C° 0 mm 3 m/s 754 mmHg 92%
    03:00 -17°C° 0 mm 3 m/s 753 mmHg 92%
    04:00 -17°C° 0 mm 3 m/s 753 mmHg 93%
    05:00 -17°C° 0 mm 3 m/s 753 mmHg 93%
    06:00 -17°C° 0 mm 3 m/s 753 mmHg 94%
    07:00 -17°C° 0 mm 3 m/s 753 mmHg 94%
    08:00 -17°C° 0 mm 3 m/s 753 mmHg 94%
    09:00 -16°C° 0 mm 3 m/s 753 mmHg 91%
    10:00 -15°C° 0 mm 3 m/s 753 mmHg 88%
    11:00 -12°C° 0 mm 2 m/s 753 mmHg 85%
    12:00 -12°C° 0 mm 2 m/s 752 mmHg 82%
    13:00 -10°C° 0 mm 2 m/s 751 mmHg 80%
    14:00 -9°C° 0 mm 2 m/s 751 mmHg 77%
    15:00 -9°C° 0 mm 1 m/s 751 mmHg 78%
    16:00 -10°C° 0 mm 1 m/s 750 mmHg 79%
    17:00 -11°C° 0 mm 1 m/s 750 mmHg 81%
    18:00 -11°C° 0 mm 1 m/s 750 mmHg 82%
    19:00 -12°C° 0 mm 1 m/s 750 mmHg 83%
    20:00 -12°C° 0 mm 1 m/s 750 mmHg 84%
    21:00 -12°C° 0 mm 1 m/s 750 mmHg 85%
    22:00 -13°C° 0 mm 1 m/s 750 mmHg 87%
    23:00 -13°C° 0 mm 1 m/s 750 mmHg 88%
    Mostrar mais